sat.trackr.live / text

‹ back to catalog

STARLINK-6328

NORAD 56523 · 2023-065W

PAYLOAD ACTIVE UNKNOWN

§ Identity

Operator
Country
US
Launch date
2023-05-14
Launch site
AFETR
Launch vehicle
Mass (kg)
RCS (m²)

Purposes: comms

External: N2YO · Heavens-Above · Gunter

§ Orbital elements

Epoch: 2026-09-20T12:48:12.819744Z

Period
94.27 min
Inclination
43.0039°
Eccentricity
0.0001572
Mean motion
15.27574715 rev/d
Perigee alt
482.0 km
Apogee alt
484.1 km
Semi-major
6,861.2 km
B*
-1.9855e-6
RAAN
192.5233°
Arg perigee
269.3612°
Mean anomaly
90.7060°
Rev number
18,639

§ Raw data

STARLINK-63281 56523U 23065W   26263.53348171 -.00000317  00000+0 -19855-5 0  99932 56523  43.0039 192.5233 0001572 269.3612  90.7060 15.27574715186394

JSON: /api/v1/satellites/56523 · /tle

For live sub-satellite position, see the globe view (requires WebGL).

§ Visibility from observer

Set your observer location to see the next 7 days of passes ≥ 10°. The values pass through the URL so the page stays shareable.

No JS? Fill the form by hand. The geolocation button needs JavaScript.